Location: Belfast
(54.5830°N, 5.9330°W)
Time: 02:29:20
(UTC+01:00)

ISS - Visible Passes

Search period start: 17 July 2018 00:00
Search period end: 27 July 2018 00:00
Orbit: 402 x 408 km, 51.6° (Epoch: 17 July)

Date Brightness Start Highest point End Pass type
(mag) Time Alt. Az. Time Alt. Az. Time Alt. Az.
17 Jul -2.0 00:41:12 17° ESE 00:41:12 17° ESE 00:42:34 10° E visible
17 Jul -3.6 02:13:49 17° WSW 02:16:04 45° S 02:19:15 10° E visible
17 Jul -3.5 03:49:08 10° W 03:52:18 45° S 03:55:29 10° ESE visible
18 Jul -3.4 01:22:47 26° SSW 01:24:04 38° SSE 01:27:10 10° E visible
18 Jul -3.7 02:57:04 10° W 03:00:17 50° S 03:03:30 10° ESE visible
19 Jul -3.0 00:30:34 20° SSW 00:32:06 30° SSE 00:35:02 10° E visible
19 Jul -3.7 02:05:03 10° WSW 02:08:15 51° S 02:11:28 10° ESE visible
19 Jul -3.2 03:41:25 10° W 03:44:27 35° SSW 03:47:29 10° SE visible
19 Jul -2.7 23:37:29 10° SSW 23:40:09 23° SSE 23:42:49 10° E visible
20 Jul -3.6 01:13:01 10° WSW 01:16:12 47° S 01:19:24 10° E visible
20 Jul -3.5 02:49:17 10° W 02:52:26 42° SSW 02:55:35 10° ESE visible
20 Jul -2.2 22:46:03 10° S 22:48:13 17° SSE 22:50:25 10° ESE visible
21 Jul -3.5 00:21:03 10° WSW 00:24:10 41° SSE 00:27:18 10° E visible
21 Jul -3.7 01:57:12 10° W 02:00:23 48° S 02:03:35 10° ESE visible
21 Jul -2.7 03:33:44 10° W 03:36:28 24° SSW 03:39:13 10° SSE visible
21 Jul -3.2 23:29:09 10° SW 23:32:08 33° SSE 23:35:09 10° E visible
22 Jul -3.7 01:05:07 10° WSW 01:08:19 51° S 01:11:32 10° ESE visible
22 Jul -3.1 02:41:31 10° W 02:44:30 32° SSW 02:47:28 10° SE visible
22 Jul -1.7 04:19:32 10° SW 04:20:15 11° SW 04:20:57 10° SSW visible
22 Jul -2.7 22:37:22 10° SSW 22:40:08 25° SSE 22:42:56 10° E visible
23 Jul -3.7 00:13:02 10° WSW 00:16:14 49° S 00:19:26 10° E visible
23 Jul -3.4 01:49:21 10° W 01:52:27 39° SSW 01:53:15 33° SSE visible
23 Jul -3.5 23:21:00 10° WSW 23:24:09 43° S 23:27:19 10° E visible
24 Jul -3.6 00:57:12 10° W 01:00:23 46° S 01:01:37 30° SE visible
24 Jul -1.5 02:33:49 10° W 02:34:12 12° WSW 02:34:12 12° WSW visible
24 Jul -3.2 22:29:02 10° SW 22:32:05 36° SSE 22:35:08 10° E visible
25 Jul -3.7 00:05:04 10° W 00:08:17 50° S 00:10:36 17° ESE visible
25 Jul -2.3 01:41:31 10° W 01:43:12 22° WSW 01:43:12 22° WSW visible
25 Jul -3.6 23:12:57 10° WSW 23:16:09 50° S 23:19:22 10° E visible
26 Jul -3.3 00:49:17 10° W 00:52:21 37° SSW 00:52:25 37° SSW visible
26 Jul -3.5 22:20:52 10° WSW 22:24:02 46° S 22:27:13 10° E visible
